• In Russia
  • List of Countries
  • For 7 days
  • Water Temperature
  • Satellite Maps
  • Weather Map
  • Weather Widgets
  • user-avatar
    Login

    Hourly Weather Klagenfurt

    Today, 17 August, Friday

    Time Temperature Precipitation Wind Pressure Humidity
    00:00 +14°C° 0 mm 1 mps 690 mmHg 83%
    01:00 +14°C° 0 mm 1 mps 690 mmHg 82%
    02:00 +14°C° 0 mm 1 mps 690 mmHg 83%
    03:00 +13°C° 0 mm 1 mps 690 mmHg 84%
    04:00 +13°C° 0 mm 1 mps 690 mmHg 85%
    05:00 +14°C° 0 mm 1 mps 690 mmHg 81%
    06:00 +16°C° 0 mm 1 mps 690 mmHg 78%
    07:00 +18°C° 0 mm 1 mps 691 mmHg 74%
    08:00 +20°C° 0 mm 1 mps 691 mmHg 65%
    09:00 +23°C° 0 mm 1 mps 692 mmHg 57%
    10:00 +26°C° 0 mm 1 mps 692 mmHg 48%
    11:00 +27°C° 0 mm 1 mps 692 mmHg 46%
    12:00 +27°C° 0 mm 1 mps 692 mmHg 43%
    13:00 +28°C° 0 mm 1 mps 692 mmHg 41%
    14:00 +28°C° 0 mm 1 mps 692 mmHg 43%
    15:00 +27°C° 0 mm 1 mps 692 mmHg 45%
    16:00 +27°C° 0 mm 1 mps 691 mmHg 47%
    17:00 +24°C° 0.1 mm 1 mps 691 mmHg 56%
    18:00 +20°C° 0.1 mm 0 mps 691 mmHg 65%
    19:00 +18°C° 0.1 mm 0 mps 690 mmHg 75%
    20:00 +17°C° 0 mm 0 mps 691 mmHg 77%
    21:00 +18°C° 0 mm 1 mps 691 mmHg 79%
    22:00 +16°C° 0 mm 1 mps 691 mmHg 81%
    23:00 +16°C° 0 mm 1 mps 691 mmHg 81%

    Tomorrow, 18 August, Saturday

    Time Temperature Precipitation Wind Pressure Humidity
    00:00 +16°C° 0 mm 1 mps 691 mmHg 82%
    01:00 +15°C° 0 mm 1 mps 691 mmHg 83%
    02:00 +15°C° 0 mm 1 mps 691 mmHg 83%
    03:00 +15°C° 0 mm 1 mps 691 mmHg 83%
    04:00 +14°C° 0 mm 1 mps 691 mmHg 83%
    05:00 +16°C° 0 mm 1 mps 692 mmHg 80%
    06:00 +18°C° 0 mm 1 mps 692 mmHg 76%
    07:00 +19°C° 0 mm 1 mps 693 mmHg 73%
    08:00 +21°C° 0 mm 1 mps 693 mmHg 65%
    09:00 +24°C° 0 mm 1 mps 694 mmHg 57%
    10:00 +26°C° 0 mm 1 mps 694 mmHg 49%
    11:00 +27°C° 0.2 mm 1 mps 694 mmHg 48%
    12:00 +28°C° 0.2 mm 1 mps 694 mmHg 47%
    13:00 +28°C° 0.2 mm 2 mps 694 mmHg 46%
    14:00 +28°C° 0.2 mm 1 mps 694 mmHg 48%
    15:00 +27°C° 0.2 mm 1 mps 694 mmHg 51%
    16:00 +27°C° 0.2 mm 1 mps 693 mmHg 53%
    17:00 +25°C° 0.4 mm 1 mps 693 mmHg 60%
    18:00 +23°C° 0.4 mm 1 mps 693 mmHg 67%
    19:00 +21°C° 0.4 mm 1 mps 693 mmHg 74%
    20:00 +20°C° 0.3 mm 1 mps 693 mmHg 77%
    21:00 +19°C° 0.3 mm 1 mps 693 mmHg 79%
    22:00 +18°C° 0.3 mm 1 mps 693 mmHg 81%
    23:00 +18°C° 0.1 mm 1 mps 693 mmHg 82%

    Day after tomorrow, 19 August, Sunday

    Time Temperature Precipitation Wind Pressure Humidity
    00:00 +16°C° 0.1 mm 1 mps 693 mmHg 83%
    01:00 +16°C° 0.1 mm 1 mps 693 mmHg 84%
    02:00 +16°C° 0 mm 1 mps 693 mmHg 85%
    03:00 +15°C° 0 mm 1 mps 693 mmHg 85%
    04:00 +15°C° 0 mm 1 mps 693 mmHg 86%
    05:00 +16°C° 0 mm 1 mps 693 mmHg 83%
    06:00 +18°C° 0 mm 1 mps 693 mmHg 80%
    07:00 +19°C° 0 mm 1 mps 694 mmHg 78%
    08:00 +22°C° 0 mm 1 mps 694 mmHg 68%
    09:00 +24°C° 0 mm 1 mps 695 mmHg 57%
    10:00 +27°C° 0 mm 1 mps 695 mmHg 47%
    11:00 +27°C° 0.2 mm 1 mps 695 mmHg 47%
    12:00 +28°C° 0.2 mm 1 mps 695 mmHg 47%
    13:00 +28°C° 0.2 mm 1 mps 695 mmHg 46%
    14:00 +28°C° 0.3 mm 1 mps 694 mmHg 48%
    15:00 +27°C° 0.3 mm 1 mps 694 mmHg 50%
    16:00 +27°C° 0.3 mm 1 mps 694 mmHg 51%
    17:00 +25°C° 0.2 mm 1 mps 693 mmHg 58%
    18:00 +23°C° 0.2 mm 1 mps 693 mmHg 65%
    19:00 +21°C° 0.2 mm 1 mps 693 mmHg 72%
    20:00 +20°C° 0.1 mm 1 mps 693 mmHg 75%
    21:00 +19°C° 0.1 mm 1 mps 693 mmHg 77%
    22:00 +18°C° 0.1 mm 1 mps 693 mmHg 79%
    23:00 +18°C° 0 mm 1 mps 693 mmHg 80%

    20 August, Monday

    Time Temperature Precipitation Wind Pressure Humidity
    00:00 +16°C° 0 mm 1 mps 692 mmHg 82%
    01:00 +16°C° 0 mm 1 mps 692 mmHg 83%
    02:00 +16°C° 0 mm 1 mps 692 mmHg 84%
    03:00 +15°C° 0 mm 1 mps 692 mmHg 84%
    04:00 +15°C° 0 mm 1 mps 692 mmHg 84%
    05:00 +16°C° 0 mm 1 mps 692 mmHg 82%
    06:00 +18°C° 0 mm 1 mps 692 mmHg 79%
    07:00 +19°C° 0 mm 1 mps 693 mmHg 76%
    08:00 +22°C° 0 mm 1 mps 693 mmHg 66%
    09:00 +24°C° 0 mm 1 mps 694 mmHg 57%
    10:00 +27°C° 0 mm 1 mps 694 mmHg 47%
    11:00 +28°C° 0 mm 1 mps 694 mmHg 45%
    12:00 +29°C° 0 mm 1 mps 694 mmHg 43%
    13:00 +30°C° 0 mm 1 mps 694 mmHg 40%
    14:00 +29°C° 0.1 mm 1 mps 694 mmHg 43%
    15:00 +28°C° 0.1 mm 1 mps 693 mmHg 45%
    16:00 +28°C° 0.1 mm 1 mps 693 mmHg 48%
    17:00 +26°C° 0.2 mm 1 mps 693 mmHg 56%
    18:00 +23°C° 0.2 mm 1 mps 692 mmHg 64%
    19:00 +19°C° 0.2 mm 0 mps 692 mmHg 72%
    20:00 +20°C° 0.4 mm 1 mps 692 mmHg 75%
    21:00 +19°C° 0.4 mm 1 mps 692 mmHg 78%
    22:00 +18°C° 0.4 mm 1 mps 692 mmHg 82%
    23:00 +18°C° 0.2 mm 1 mps 692 mmHg 83%

    21 August, Tuesday

    Time Temperature Precipitation Wind Pressure Humidity
    00:00 +18°C° 0.2 mm 1 mps 692 mmHg 84%
    01:00 +16°C° 0.2 mm 1 mps 692 mmHg 86%
    02:00 +16°C° 0.1 mm 1 mps 692 mmHg 86%
    03:00 +16°C° 0.1 mm 1 mps 692 mmHg 87%
    04:00 +15°C° 0.1 mm 1 mps 692 mmHg 88%
    05:00 +16°C° 0 mm 1 mps 693 mmHg 85%
    06:00 +18°C° 0 mm 1 mps 693 mmHg 82%
    07:00 +19°C° 0 mm 1 mps 693 mmHg 79%
    08:00 +22°C° 0 mm 1 mps 694 mmHg 69%
    09:00 +25°C° 0 mm 1 mps 694 mmHg 59%
    10:00 +27°C° 0 mm 1 mps 695 mmHg 49%
    11:00 +28°C° 0.1 mm 1 mps 695 mmHg 47%
    12:00 +29°C° 0.1 mm 1 mps 694 mmHg 46%
    13:00 +29°C° 0.1 mm 1 mps 694 mmHg 45%
    14:00 +29°C° 0.2 mm 1 mps 694 mmHg 46%
    15:00 +28°C° 0.2 mm 1 mps 694 mmHg 48%
    16:00 +28°C° 0.2 mm 1 mps 694 mmHg 49%
    17:00 +26°C° 0.1 mm 1 mps 693 mmHg 56%
    18:00 +24°C° 0.1 mm 1 mps 693 mmHg 63%
    19:00 +19°C° 0.1 mm 0 mps 692 mmHg 71%
    20:00 +21°C° 0.1 mm 1 mps 693 mmHg 72%
    21:00 +20°C° 0.1 mm 1 mps 693 mmHg 74%
    22:00 +19°C° 0.1 mm 1 mps 693 mmHg 76%
    23:00 +19°C° 0 mm 1 mps 693 mmHg 78%

    22 August, Wednesday

    Time Temperature Precipitation Wind Pressure Humidity
    00:00 +18°C° 0 mm 1 mps 693 mmHg 79%
    01:00 +18°C° 0 mm 1 mps 692 mmHg 80%
    02:00 +18°C° 0 mm 1 mps 692 mmHg 81%
    03:00 +16°C° 0 mm 1 mps 692 mmHg 82%
    04:00 +16°C° 0 mm 1 mps 692 mmHg 83%
    05:00 +18°C° 0 mm 1 mps 692 mmHg 80%
    06:00 +19°C° 0 mm 1 mps 693 mmHg 78%
    07:00 +20°C° 0 mm 1 mps 693 mmHg 75%
    08:00 +23°C° 0 mm 1 mps 693 mmHg 66%
    09:00 +25°C° 0 mm 1 mps 694 mmHg 56%
    10:00 +28°C° 0 mm 1 mps 694 mmHg 46%
    11:00 +29°C° 0.1 mm 1 mps 694 mmHg 44%
    12:00 +29°C° 0.1 mm 1 mps 694 mmHg 42%
    13:00 +30°C° 0.1 mm 1 mps 694 mmHg 40%
    14:00 +29°C° 0.1 mm 1 mps 693 mmHg 42%
    15:00 +29°C° 0.1 mm 1 mps 693 mmHg 44%
    16:00 +28°C° 0.1 mm 1 mps 693 mmHg 46%
    17:00 +26°C° 0.1 mm 1 mps 692 mmHg 53%
    18:00 +22°C° 0.1 mm 0 mps 692 mmHg 61%
    19:00 +20°C° 0.1 mm 0 mps 692 mmHg 68%
    20:00 +19°C° 0.2 mm 0 mps 692 mmHg 70%
    21:00 +20°C° 0.2 mm 1 mps 692 mmHg 72%
    22:00 +20°C° 0.2 mm 1 mps 692 mmHg 74%
    23:00 +19°C° 0.2 mm 1 mps 692 mmHg 76%
    Show more